AUA39C EDDP-LOWW

Flight info

Callsign AUA39C
Flight time 0h 55m
Altitude 29000
Route DRN2N DRN Z21 OMELO DCT EVIKU DCT BITSI DCT MIKOV MIKOV8W
Aircraft A320/M-SDE3FGHIRWY/LB1

Departure

Time 2026-04-26 12:42
Airport Leipzig/Halle Airport (EDDP)

Arrival

Time 2026-04-26 13:37
Airport Vienna International Airport (LOWW)
Time Latitude Longitude Altitude Speed Heading
2026-04-26 12:21 51.41915 12.22035 436 ft 0 kts 15°
2026-04-26 12:32 51.41913 12.22035 436 ft 1 kts 15°
2026-04-26 12:32 51.41898 12.22028 424 ft 3 kts 13°
2026-04-26 12:32 51.41858 12.22012 423 ft 3 kts 20°
2026-04-26 12:33 51.41841 12.21999 433 ft 3 kts 42°
2026-04-26 12:33 51.41829 12.21980 424 ft 3 kts 58°
2026-04-26 12:33 51.41822 12.21952 429 ft 3 kts 90°
2026-04-26 12:33 51.41825 12.21921 426 ft 3 kts 105°
2026-04-26 12:34 51.41827 12.21907 425 ft 0 kts 105°
2026-04-26 12:37 51.41826 12.21912 425 ft 4 kts 105°
2026-04-26 12:37 51.41798 12.22079 436 ft 19 kts 108°
2026-04-26 12:37 51.41757 12.22294 431 ft 21 kts 104°
2026-04-26 12:37 51.41723 12.22523 442 ft 20 kts 105°
2026-04-26 12:38 51.41692 12.22729 450 ft 18 kts 102°
2026-04-26 12:38 51.41661 12.22912 454 ft 16 kts 102°
2026-04-26 12:38 51.41632 12.23073 459 ft 14 kts 111°
2026-04-26 12:38 51.41602 12.23224 465 ft 20 kts 98°
2026-04-26 12:39 51.41609 12.23514 467 ft 29 kts 86°
2026-04-26 12:39 51.41623 12.23825 473 ft 28 kts 85°
2026-04-26 12:39 51.41640 12.24131 478 ft 27 kts 85°
2026-04-26 12:39 51.41653 12.24435 473 ft 28 kts 86°
2026-04-26 12:40 51.41659 12.24701 479 ft 15 kts 104°
2026-04-26 12:40 51.41575 12.24741 478 ft 13 kts 192°
2026-04-26 12:40 51.41446 12.24693 471 ft 29 kts 193°
2026-04-26 12:40 51.41355 12.24603 476 ft 4 kts 263°
2026-04-26 12:41 51.41355 12.24602 476 ft 0 kts 264°
2026-04-26 12:41 51.41353 12.24573 477 ft 22 kts 264°
2026-04-26 12:41 51.41320 12.23851 473 ft 103 kts 266°
2026-04-26 12:41 51.41244 12.22361 463 ft 163 kts 266°
2026-04-26 12:42 51.41174 12.20435 1003 ft 175 kts 268°
2026-04-26 12:42 51.41084 12.18515 1947 ft 171 kts 267°
2026-04-26 12:42 51.40991 12.16589 2678 ft 181 kts 266°
2026-04-26 12:42 51.40888 12.14452 3090 ft 204 kts 266°
2026-04-26 12:43 51.40773 12.12075 3498 ft 229 kts 266°
2026-04-26 12:43 51.40641 12.09360 4058 ft 253 kts 267°
2026-04-26 12:43 51.40502 12.06531 4913 ft 262 kts 267°
2026-04-26 12:43 51.40354 12.03599 5914 ft 266 kts 265°
2026-04-26 12:44 51.39813 12.00741 6889 ft 275 kts 242°
2026-04-26 12:44 51.39013 11.99100 7509 ft 281 kts 224°
2026-04-26 12:44 51.37302 11.97547 8417 ft 290 kts 196°
2026-04-26 12:44 51.34627 11.97742 9626 ft 301 kts 158°
2026-04-26 12:45 51.33409 11.98901 10207 ft 305 kts 137°
2026-04-26 12:45 51.31945 12.02716 11138 ft 316 kts 106°
2026-04-26 12:45 51.31258 12.06187 11449 ft 340 kts 104°
2026-04-26 12:45 51.30580 12.09938 11767 ft 361 kts 103°
2026-04-26 12:46 51.30115 12.12571 12188 ft 367 kts 103°
2026-04-26 12:46 51.29413 12.16529 12931 ft 374 kts 103°
2026-04-26 12:46 51.28687 12.20547 13690 ft 379 kts 104°
2026-04-26 12:46 51.27944 12.24562 14397 ft 384 kts 104°
2026-04-26 12:47 51.27257 12.28221 15004 ft 388 kts 104°
2026-04-26 12:47 51.26505 12.32188 15654 ft 392 kts 104°
2026-04-26 12:47 51.25708 12.36380 16329 ft 397 kts 105°
2026-04-26 12:47 51.24902 12.40615 16989 ft 401 kts 105°
2026-04-26 12:48 51.24085 12.44901 17662 ft 406 kts 105°
2026-04-26 12:48 51.23260 12.49231 18317 ft 411 kts 104°
2026-04-26 12:48 51.22423 12.53620 18899 ft 416 kts 104°
2026-04-26 12:48 51.21576 12.58051 19490 ft 420 kts 104°
2026-04-26 12:49 51.20720 12.62516 20087 ft 423 kts 105°
2026-04-26 12:49 51.19866 12.66961 20679 ft 427 kts 105°
2026-04-26 12:49 51.18981 12.71559 21287 ft 430 kts 105°
2026-04-26 12:49 51.18111 12.76063 21863 ft 433 kts 105°
2026-04-26 12:50 51.17219 12.80669 22431 ft 436 kts 105°
2026-04-26 12:50 51.16319 12.85310 22980 ft 440 kts 105°
2026-04-26 12:50 51.15410 12.89977 23519 ft 443 kts 105°
2026-04-26 12:50 51.14492 12.94679 23997 ft 447 kts 105°
2026-04-26 12:51 51.13564 12.99428 24394 ft 451 kts 105°
2026-04-26 12:51 51.12631 13.04211 24805 ft 454 kts 105°
2026-04-26 12:51 51.11688 13.09030 25206 ft 457 kts 105°
2026-04-26 12:51 51.10735 13.13874 25609 ft 460 kts 106°
2026-04-26 12:52 51.09772 13.18748 26002 ft 463 kts 106°
2026-04-26 12:52 51.08803 13.23638 26391 ft 466 kts 106°
2026-04-26 12:52 51.07824 13.28562 26778 ft 468 kts 107°
2026-04-26 12:52 51.06838 13.33512 27154 ft 471 kts 107°
2026-04-26 12:53 51.05845 13.38494 27510 ft 475 kts 107°
2026-04-26 12:53 51.04842 13.43514 27822 ft 478 kts 107°
2026-04-26 12:53 51.03830 13.48566 28155 ft 482 kts 107°
2026-04-26 12:53 51.02811 13.53646 28497 ft 484 kts 107°
2026-04-26 12:54 51.01683 13.58696 28829 ft 487 kts 113°
2026-04-26 12:54 51.00135 13.63482 29157 ft 487 kts 122°
2026-04-26 12:54 50.98329 13.68035 29309 ft 486 kts 123°
2026-04-26 12:55 50.94738 13.77031 29322 ft 481 kts 123°
2026-04-26 12:55 50.90880 13.85663 29319 ft 479 kts 129°
2026-04-26 12:56 50.86789 13.94001 29313 ft 479 kts 129°
2026-04-26 12:56 50.82477 14.02005 29304 ft 476 kts 139°
2026-04-26 12:57 50.77587 14.09075 29301 ft 476 kts 140°
2026-04-26 12:57 50.72696 14.16122 29308 ft 476 kts 140°
2026-04-26 12:58 50.65339 14.26691 29282 ft 477 kts 140°
2026-04-26 12:58 50.60428 14.33718 29288 ft 477 kts 140°
2026-04-26 12:59 50.55509 14.40742 29293 ft 477 kts 140°
2026-04-26 12:59 50.50589 14.47732 29286 ft 477 kts 140°
2026-04-26 13:00 50.45666 14.54721 29289 ft 478 kts 140°
2026-04-26 13:00 50.40827 14.61898 29256 ft 479 kts 137°
2026-04-26 13:01 50.36113 14.69193 29274 ft 479 kts 137°
2026-04-26 13:01 50.31357 14.76504 29280 ft 479 kts 138°
2026-04-26 13:02 50.26562 14.83732 29280 ft 478 kts 138°
2026-04-26 13:02 50.21752 14.90925 29274 ft 479 kts 138°
2026-04-26 13:03 50.16936 14.98123 29268 ft 480 kts 138°
2026-04-26 13:03 50.12114 15.05328 29257 ft 480 kts 138°
2026-04-26 13:04 50.07279 15.12517 29257 ft 481 kts 139°
2026-04-26 13:04 50.02441 15.19699 29259 ft 481 kts 138°
2026-04-26 13:05 49.97591 15.26881 29259 ft 482 kts 139°
2026-04-26 13:05 49.92718 15.34062 29252 ft 483 kts 139°
2026-04-26 13:06 49.87840 15.41241 29255 ft 484 kts 139°
2026-04-26 13:06 49.82948 15.48420 29234 ft 484 kts 139°
2026-04-26 13:07 49.78090 15.55527 29261 ft 483 kts 139°
2026-04-26 13:07 49.73199 15.62665 29249 ft 484 kts 139°
2026-04-26 13:08 49.68304 15.69792 29247 ft 484 kts 139°
2026-04-26 13:08 49.63394 15.76913 29246 ft 484 kts 139°
2026-04-26 13:09 49.58482 15.84027 29245 ft 484 kts 139°
2026-04-26 13:09 49.53567 15.91118 29235 ft 484 kts 139°
2026-04-26 13:10 49.48646 15.98183 29230 ft 484 kts 139°
2026-04-26 13:10 49.43716 16.05244 29230 ft 484 kts 139°
2026-04-26 13:11 49.38785 16.12289 29229 ft 484 kts 139°
2026-04-26 13:11 49.33848 16.19315 29123 ft 485 kts 139°
2026-04-26 13:12 49.31296 16.22686 28854 ft 484 kts 146°
2026-04-26 13:12 49.28446 16.25401 28584 ft 482 kts 156°
2026-04-26 13:12 49.25448 16.27635 27959 ft 478 kts 157°
2026-04-26 13:12 49.22468 16.29838 27205 ft 474 kts 157°
2026-04-26 13:13 49.19508 16.32028 26469 ft 471 kts 157°
2026-04-26 13:13 49.16571 16.34201 25737 ft 468 kts 156°
2026-04-26 13:13 49.13648 16.36361 25013 ft 466 kts 156°
2026-04-26 13:13 49.10735 16.38508 24283 ft 464 kts 156°
2026-04-26 13:14 49.07828 16.40644 23537 ft 463 kts 156°
2026-04-26 13:14 49.04937 16.42767 22818 ft 459 kts 156°
2026-04-26 13:14 49.02075 16.44870 22165 ft 455 kts 156°
2026-04-26 13:14 48.99272 16.46926 21534 ft 451 kts 156°
2026-04-26 13:15 48.96419 16.49015 20923 ft 448 kts 155°
2026-04-26 13:15 48.93656 16.51038 20331 ft 445 kts 155°
2026-04-26 13:15 48.90874 16.53075 19774 ft 443 kts 155°
2026-04-26 13:15 48.89003 16.54443 19386 ft 441 kts 155°
2026-04-26 13:16 48.85356 16.57097 18653 ft 438 kts 155°
2026-04-26 13:16 48.82617 16.59082 18063 ft 435 kts 155°
2026-04-26 13:16 48.79896 16.61045 17501 ft 431 kts 156°
2026-04-26 13:16 48.77095 16.62538 17016 ft 425 kts 168°
2026-04-26 13:17 48.71305 16.64446 16509 ft 424 kts 169°
2026-04-26 13:17 48.68429 16.65396 16211 ft 422 kts 169°
2026-04-26 13:18 48.62714 16.67202 15637 ft 416 kts 175°
2026-04-26 13:18 48.59844 16.67342 15347 ft 410 kts 187°
2026-04-26 13:18 48.54468 16.65137 14797 ft 395 kts 211°
2026-04-26 13:19 48.52160 16.62966 14509 ft 386 kts 222°
2026-04-26 13:19 48.49993 16.60593 14250 ft 387 kts 216°
2026-04-26 13:19 48.47534 16.58877 13961 ft 393 kts 202°
2026-04-26 13:19 48.44846 16.58062 13667 ft 397 kts 187°
2026-04-26 13:20 48.42084 16.58211 13401 ft 400 kts 173°
2026-04-26 13:20 48.39374 16.59217 13140 ft 401 kts 166°
2026-04-26 13:20 48.36693 16.60357 12855 ft 400 kts 166°
2026-04-26 13:20 48.34017 16.61486 12583 ft 398 kts 166°
2026-04-26 13:21 48.31353 16.62602 12313 ft 397 kts 166°
2026-04-26 13:21 48.29596 16.63339 12125 ft 395 kts 166°
2026-04-26 13:21 48.26067 16.64820 11779 ft 393 kts 166°
2026-04-26 13:21 48.23440 16.65924 11514 ft 391 kts 166°
2026-04-26 13:22 48.20824 16.67020 11263 ft 390 kts 166°
2026-04-26 13:22 48.18237 16.68105 11026 ft 380 kts 166°
2026-04-26 13:22 48.15745 16.69154 10892 ft 364 kts 166°
2026-04-26 13:22 48.13359 16.70160 10774 ft 349 kts 166°
2026-04-26 13:23 48.11059 16.71124 10656 ft 337 kts 167°
2026-04-26 13:23 48.08841 16.72049 10479 ft 327 kts 167°
2026-04-26 13:23 48.06667 16.72950 10275 ft 321 kts 167°
2026-04-26 13:23 48.04518 16.73839 10131 ft 320 kts 167°
2026-04-26 13:24 48.02377 16.74723 9893 ft 318 kts 167°
2026-04-26 13:24 48.00246 16.75601 9681 ft 317 kts 167°
2026-04-26 13:24 47.98125 16.76477 9463 ft 316 kts 167°
2026-04-26 13:24 47.96013 16.77356 9252 ft 315 kts 167°
2026-04-26 13:25 47.93937 16.78222 9039 ft 313 kts 167°
2026-04-26 13:25 47.91817 16.79099 8829 ft 312 kts 168°
2026-04-26 13:25 47.89729 16.79961 8619 ft 311 kts 168°
2026-04-26 13:25 47.87674 16.80807 8408 ft 310 kts 168°
2026-04-26 13:26 47.85598 16.81658 8201 ft 309 kts 168°
2026-04-26 13:26 47.83530 16.82506 7977 ft 306 kts 168°
2026-04-26 13:26 47.81521 16.83335 7833 ft 293 kts 169°
2026-04-26 13:26 47.79588 16.84135 7613 ft 285 kts 169°
2026-04-26 13:27 47.77696 16.84913 7359 ft 280 kts 169°
2026-04-26 13:27 47.75827 16.85676 7154 ft 278 kts 170°
2026-04-26 13:27 47.73960 16.86298 6952 ft 270 kts 184°
2026-04-26 13:27 47.72186 16.85865 6773 ft 252 kts 211°
2026-04-26 13:28 47.70801 16.84423 6586 ft 237 kts 236°
2026-04-26 13:28 47.69986 16.82379 6409 ft 227 kts 257°
2026-04-26 13:28 47.69562 16.80120 6235 ft 228 kts 260°
2026-04-26 13:28 47.69420 16.77820 6057 ft 222 kts 284°
2026-04-26 13:29 47.70092 16.75816 5897 ft 220 kts 314°
2026-04-26 13:29 47.70908 16.74928 5785 ft 222 kts 334°
2026-04-26 13:29 47.72913 16.74062 5564 ft 225 kts 342°
2026-04-26 13:29 47.74447 16.73469 5394 ft 236 kts 344°
2026-04-26 13:30 47.76039 16.72886 5211 ft 231 kts 344°
2026-04-26 13:30 47.77568 16.72269 4913 ft 225 kts 344°
2026-04-26 13:30 47.79076 16.71639 4798 ft 234 kts 344°
2026-04-26 13:30 47.80645 16.70983 4719 ft 230 kts 344°
2026-04-26 13:31 47.82149 16.70354 4550 ft 221 kts 344°
2026-04-26 13:31 47.83627 16.69737 4406 ft 219 kts 344°
2026-04-26 13:31 47.85087 16.69127 4252 ft 218 kts 344°
2026-04-26 13:31 47.86556 16.68512 4102 ft 220 kts 343°
2026-04-26 13:32 47.88034 16.67893 3949 ft 222 kts 343°
2026-04-26 13:32 47.89522 16.67270 3799 ft 222 kts 343°
2026-04-26 13:32 47.90502 16.66859 3688 ft 221 kts 344°
2026-04-26 13:32 47.91988 16.66236 3531 ft 222 kts 345°
2026-04-26 13:33 47.93444 16.65625 3371 ft 213 kts 345°
2026-04-26 13:33 47.94837 16.65040 3227 ft 203 kts 345°
2026-04-26 13:33 47.96162 16.64484 3139 ft 193 kts 345°
2026-04-26 13:33 47.97431 16.63951 2945 ft 186 kts 344°
2026-04-26 13:34 47.98630 16.63447 2749 ft 174 kts 344°
2026-04-26 13:34 47.99755 16.62973 2495 ft 162 kts 344°
2026-04-26 13:34 48.00784 16.62540 2288 ft 144 kts 345°
2026-04-26 13:34 48.01402 16.62280 2164 ft 137 kts 344°
2026-04-26 13:35 48.02612 16.61771 1914 ft 135 kts 345°
2026-04-26 13:35 48.03509 16.61393 1737 ft 133 kts 346°
2026-04-26 13:35 48.04400 16.61017 1552 ft 133 kts 346°
2026-04-26 13:35 48.05281 16.60646 1373 ft 130 kts 347°
2026-04-26 13:36 48.06157 16.60277 1189 ft 131 kts 346°
2026-04-26 13:36 48.07046 16.59901 1005 ft 134 kts 346°
2026-04-26 13:36 48.07930 16.59530 827 ft 131 kts 346°
2026-04-26 13:36 48.08800 16.59153 657 ft 129 kts 347°
2026-04-26 13:37 48.09595 16.58833 623 ft 95 kts 343°
2026-04-26 13:37 48.10058 16.58647 615 ft 52 kts 343°
2026-04-26 13:37 48.10354 16.58483 615 ft 36 kts 323°
2026-04-26 13:37 48.10478 16.58222 617 ft 26 kts 300°
2026-04-26 13:38 48.10620 16.58117 619 ft 24 kts 347°
2026-04-26 13:38 48.10777 16.58058 615 ft 23 kts 336°
2026-04-26 13:38 48.10931 16.57982 612 ft 23 kts 323°
2026-04-26 13:38 48.11038 16.57797 609 ft 26 kts 310°
2026-04-26 13:39 48.11121 16.57555 609 ft 27 kts 295°
2026-04-26 13:39 48.11204 16.57294 612 ft 27 kts 296°
2026-04-26 13:39 48.11287 16.57040 615 ft 28 kts 296°
2026-04-26 13:39 48.11362 16.56829 607 ft 15 kts 330°
2026-04-26 13:40 48.11467 16.56870 611 ft 18 kts 26°
2026-04-26 13:40 48.11578 16.56902 613 ft 16 kts 327°
2026-04-26 13:40 48.11622 16.56881 604 ft 4 kts
2026-04-26 13:40 48.11658 16.56888 603 ft 8 kts 27°
2026-04-26 13:41 48.11668 16.56895 603 ft 0 kts 26°